DAL1490 KATL-KBNA

Flight info

Callsign DAL1490
Flight time 0h 41m
Altitude 28000
Route PENCL2 PENCL JAGIR SWFFT3
Aircraft B738/M-SDE2E3FGHIRWXY/LB1

Departure

Time 2026-05-06 01:28
Airport Hartsfield Jackson Atlanta International Airport (KATL)

Arrival

Time 2026-05-06 02:09
Airport Nashville International Airport (KBNA)
Time Latitude Longitude Altitude Speed Heading
2026-05-06 00:59 33.64298 -84.42626 1034 ft 0 kts 89°
2026-05-06 01:06 33.64298 -84.42627 1034 ft 0 kts 89°
2026-05-06 01:13 33.64298 -84.42631 1025 ft 3 kts 90°
2026-05-06 01:13 33.64299 -84.42663 1034 ft 4 kts 90°
2026-05-06 01:13 33.64297 -84.42695 1034 ft 4 kts 74°
2026-05-06 01:14 33.64267 -84.42735 1034 ft 2 kts
2026-05-06 01:14 33.64262 -84.42735 1034 ft 2 kts
2026-05-06 01:19 33.64265 -84.42735 1034 ft 2 kts
2026-05-06 01:19 33.64294 -84.42735 1034 ft 5 kts
2026-05-06 01:19 33.64326 -84.42735 1034 ft 1 kts 359°
2026-05-06 01:20 33.64330 -84.42735 1034 ft 2 kts 360°
2026-05-06 01:20 33.64376 -84.42736 1034 ft 10 kts 359°
2026-05-06 01:20 33.64449 -84.42757 1034 ft 12 kts 336°
2026-05-06 01:20 33.64525 -84.42746 1034 ft 12 kts 42°
2026-05-06 01:21 33.64544 -84.42643 1034 ft 16 kts 91°
2026-05-06 01:21 33.64543 -84.42478 1034 ft 21 kts 90°
2026-05-06 01:21 33.64543 -84.42302 1034 ft 20 kts 89°
2026-05-06 01:21 33.64543 -84.42113 1034 ft 21 kts 90°
2026-05-06 01:22 33.64543 -84.41948 1034 ft 21 kts 90°
2026-05-06 01:22 33.64543 -84.41751 1035 ft 22 kts 90°
2026-05-06 01:22 33.64544 -84.41563 1035 ft 22 kts 91°
2026-05-06 01:22 33.64548 -84.41379 1035 ft 22 kts 82°
2026-05-06 01:23 33.64544 -84.41200 1035 ft 21 kts 90°
2026-05-06 01:23 33.64544 -84.41026 1034 ft 21 kts 90°
2026-05-06 01:23 33.64544 -84.40883 1034 ft 14 kts 90°
2026-05-06 01:23 33.64566 -84.40770 1034 ft 14 kts 78°
2026-05-06 01:24 33.64570 -84.40661 1033 ft 13 kts 89°
2026-05-06 01:24 33.64581 -84.40599 1033 ft 0 kts 54°
2026-05-06 01:25 33.64582 -84.40598 1033 ft 0 kts 57°
2026-05-06 01:25 33.64583 -84.40595 1033 ft 0 kts 62°
2026-05-06 01:26 33.64611 -84.40573 1033 ft 8 kts 15°
2026-05-06 01:26 33.64669 -84.40580 1032 ft 9 kts 324°
2026-05-06 01:26 33.64677 -84.40610 1032 ft 0 kts 273°
2026-05-06 01:27 33.64677 -84.40611 1032 ft 0 kts 272°
2026-05-06 01:27 33.64678 -84.40815 1033 ft 64 kts 269°
2026-05-06 01:27 33.64677 -84.41672 1035 ft 138 kts 270°
2026-05-06 01:27 33.64664 -84.43070 1161 ft 191 kts 269°
2026-05-06 01:28 33.64696 -84.44776 1681 ft 216 kts 267°
2026-05-06 01:28 33.64719 -84.46483 2846 ft 200 kts 278°
2026-05-06 01:28 33.65326 -84.47987 3785 ft 202 kts 292°
2026-05-06 01:28 33.65975 -84.49564 4105 ft 227 kts 290°
2026-05-06 01:29 33.66688 -84.51399 4362 ft 256 kts 290°
2026-05-06 01:29 33.67455 -84.53393 4989 ft 267 kts 290°
2026-05-06 01:29 33.68236 -84.55408 5987 ft 263 kts 292°
2026-05-06 01:29 33.69387 -84.57122 6977 ft 271 kts 318°
2026-05-06 01:30 33.71148 -84.58056 7806 ft 284 kts 342°
2026-05-06 01:30 33.73150 -84.58286 8653 ft 292 kts 354°
2026-05-06 01:30 33.75191 -84.58233 9497 ft 294 kts 356°
2026-05-06 01:30 33.76545 -84.58183 10036 ft 295 kts 355°
2026-05-06 01:31 33.78600 -84.58125 10827 ft 296 kts 355°
2026-05-06 01:31 33.80663 -84.58086 11588 ft 297 kts 355°
2026-05-06 01:31 33.82760 -84.58075 12100 ft 310 kts 354°
2026-05-06 01:31 33.84997 -84.58157 12245 ft 330 kts 348°
2026-05-06 01:32 33.87295 -84.58754 12420 ft 346 kts 340°
2026-05-06 01:32 33.89673 -84.59564 12684 ft 362 kts 339°
2026-05-06 01:32 33.92091 -84.60405 13194 ft 369 kts 340°
2026-05-06 01:32 33.94568 -84.61250 13890 ft 371 kts 340°
2026-05-06 01:33 33.97062 -84.62083 14536 ft 372 kts 340°
2026-05-06 01:33 33.99570 -84.62907 15145 ft 375 kts 340°
2026-05-06 01:33 34.02092 -84.63729 15737 ft 377 kts 340°
2026-05-06 01:33 34.04636 -84.64554 16307 ft 380 kts 340°
2026-05-06 01:34 34.07199 -84.65384 16862 ft 383 kts 340°
2026-05-06 01:34 34.09784 -84.66221 17417 ft 386 kts 340°
2026-05-06 01:34 34.12391 -84.67065 17940 ft 389 kts 339°
2026-05-06 01:34 34.15020 -84.67918 18402 ft 393 kts 339°
2026-05-06 01:35 34.17686 -84.68782 18867 ft 396 kts 339°
2026-05-06 01:35 34.20321 -84.69636 19326 ft 398 kts 339°
2026-05-06 01:35 34.23003 -84.70507 19792 ft 400 kts 339°
2026-05-06 01:35 34.25669 -84.71455 20236 ft 398 kts 333°
2026-05-06 01:36 34.28052 -84.73074 20675 ft 393 kts 322°
2026-05-06 01:36 34.30355 -84.74872 21120 ft 395 kts 322°
2026-05-06 01:36 34.32687 -84.76668 21555 ft 397 kts 323°
2026-05-06 01:36 34.35039 -84.78460 21967 ft 400 kts 323°
2026-05-06 01:37 34.37407 -84.80253 22393 ft 402 kts 323°
2026-05-06 01:37 34.39790 -84.82053 22782 ft 405 kts 323°
2026-05-06 01:37 34.42190 -84.83862 23168 ft 407 kts 323°
2026-05-06 01:37 34.44604 -84.85683 23542 ft 409 kts 323°
2026-05-06 01:38 34.46996 -84.87487 23884 ft 410 kts 323°
2026-05-06 01:38 34.49455 -84.89344 24248 ft 411 kts 323°
2026-05-06 01:38 34.51845 -84.91150 24623 ft 411 kts 323°
2026-05-06 01:38 34.54274 -84.92987 24955 ft 412 kts 323°
2026-05-06 01:39 34.56705 -84.94828 25282 ft 412 kts 323°
2026-05-06 01:39 34.59139 -84.96673 25607 ft 413 kts 323°
2026-05-06 01:39 34.61584 -84.98526 25934 ft 414 kts 323°
2026-05-06 01:39 34.64030 -85.00382 26277 ft 415 kts 323°
2026-05-06 01:40 34.66487 -85.02254 26513 ft 418 kts 322°
2026-05-06 01:40 34.68945 -85.04149 26771 ft 419 kts 322°
2026-05-06 01:40 34.71399 -85.06056 27249 ft 416 kts 322°
2026-05-06 01:40 34.73833 -85.07929 27759 ft 411 kts 322°
2026-05-06 01:41 34.76259 -85.09803 27951 ft 414 kts 322°
2026-05-06 01:41 34.78662 -85.11667 27964 ft 414 kts 322°
2026-05-06 01:41 34.81087 -85.13547 27940 ft 412 kts 322°
2026-05-06 01:41 34.83494 -85.15412 27945 ft 410 kts 322°
2026-05-06 01:42 34.85900 -85.17280 27936 ft 409 kts 322°
2026-05-06 01:42 34.88303 -85.19144 27953 ft 408 kts 322°
2026-05-06 01:42 34.90696 -85.21004 27965 ft 409 kts 322°
2026-05-06 01:42 34.93104 -85.22879 27954 ft 413 kts 322°
2026-05-06 01:43 34.95538 -85.24775 27956 ft 416 kts 322°
2026-05-06 01:43 34.97983 -85.26678 27942 ft 416 kts 322°
2026-05-06 01:43 35.00427 -85.28581 27947 ft 416 kts 322°
2026-05-06 01:43 35.02870 -85.30484 27943 ft 417 kts 322°
2026-05-06 01:44 35.05315 -85.32391 27944 ft 416 kts 322°
2026-05-06 01:44 35.07759 -85.34299 27949 ft 416 kts 322°
2026-05-06 01:44 35.10174 -85.36185 27946 ft 416 kts 322°
2026-05-06 01:44 35.12614 -85.38092 27945 ft 415 kts 322°
2026-05-06 01:45 35.15036 -85.40004 27957 ft 414 kts 320°
2026-05-06 01:45 35.17247 -85.42222 27966 ft 409 kts 310°
2026-05-06 01:45 35.19200 -85.44729 27941 ft 403 kts 309°
2026-05-06 01:45 35.21103 -85.47193 27931 ft 396 kts 309°
2026-05-06 01:46 35.22973 -85.49603 27921 ft 384 kts 309°
2026-05-06 01:46 35.24777 -85.51914 27917 ft 367 kts 309°
2026-05-06 01:46 35.26504 -85.54121 27878 ft 353 kts 309°
2026-05-06 01:46 35.28207 -85.56315 26916 ft 361 kts 309°
2026-05-06 01:47 35.29988 -85.58610 25670 ft 381 kts 309°
2026-05-06 01:47 35.31843 -85.60975 24908 ft 385 kts 309°
2026-05-06 01:47 35.33687 -85.63330 24373 ft 383 kts 309°
2026-05-06 01:47 35.35528 -85.65684 23856 ft 381 kts 309°
2026-05-06 01:48 35.37334 -85.67998 23326 ft 379 kts 309°
2026-05-06 01:48 35.39149 -85.70322 22759 ft 376 kts 309°
2026-05-06 01:48 35.40952 -85.72633 22245 ft 372 kts 309°
2026-05-06 01:48 35.42730 -85.74915 21740 ft 368 kts 309°
2026-05-06 01:49 35.44490 -85.77177 21269 ft 365 kts 309°
2026-05-06 01:49 35.46235 -85.79420 20788 ft 361 kts 309°
2026-05-06 01:49 35.47971 -85.81653 20320 ft 359 kts 309°
2026-05-06 01:49 35.49689 -85.83866 19843 ft 356 kts 309°
2026-05-06 01:50 35.51375 -85.86038 19389 ft 354 kts 309°
2026-05-06 01:50 35.53059 -85.88207 19166 ft 345 kts 309°
2026-05-06 01:50 35.54698 -85.90316 18977 ft 336 kts 308°
2026-05-06 01:50 35.56285 -85.92385 18708 ft 330 kts 308°
2026-05-06 01:51 35.57727 -85.94312 18441 ft 328 kts 307°
2026-05-06 01:51 35.59278 -85.96401 18148 ft 333 kts 307°
2026-05-06 01:51 35.60850 -85.98520 17796 ft 338 kts 307°
2026-05-06 01:51 35.62415 -86.00621 17478 ft 336 kts 307°
2026-05-06 01:52 35.63992 -86.02732 17145 ft 333 kts 307°
2026-05-06 01:52 35.65553 -86.04823 16844 ft 330 kts 307°
2026-05-06 01:52 35.67092 -86.06886 16621 ft 326 kts 307°
2026-05-06 01:52 35.68626 -86.08943 16329 ft 325 kts 307°
2026-05-06 01:53 35.70162 -86.11006 16078 ft 328 kts 307°
2026-05-06 01:53 35.71665 -86.13135 15739 ft 330 kts 303°
2026-05-06 01:53 35.73045 -86.15376 15445 ft 327 kts 301°
2026-05-06 01:53 35.74382 -86.17629 15142 ft 325 kts 301°
2026-05-06 01:54 35.75695 -86.19850 14840 ft 324 kts 301°
2026-05-06 01:54 35.77022 -86.22084 14548 ft 322 kts 301°
2026-05-06 01:54 35.78345 -86.24307 14237 ft 321 kts 301°
2026-05-06 01:54 35.79663 -86.26521 13944 ft 320 kts 301°
2026-05-06 01:55 35.80977 -86.28725 13630 ft 319 kts 301°
2026-05-06 01:55 35.82295 -86.30934 13321 ft 318 kts 301°
2026-05-06 01:55 35.83606 -86.33125 13011 ft 317 kts 301°
2026-05-06 01:55 35.84909 -86.35305 12699 ft 315 kts 301°
2026-05-06 01:56 35.86208 -86.37478 12413 ft 314 kts 301°
2026-05-06 01:56 35.87500 -86.39643 12124 ft 313 kts 301°
2026-05-06 01:56 35.88790 -86.41805 11835 ft 312 kts 301°
2026-05-06 01:56 35.90074 -86.43958 11548 ft 310 kts 301°
2026-05-06 01:57 35.91344 -86.46085 11259 ft 305 kts 301°
2026-05-06 01:57 35.92588 -86.48172 10998 ft 300 kts 300°
2026-05-06 01:57 35.93799 -86.50204 10731 ft 295 kts 300°
2026-05-06 01:57 35.95006 -86.52233 10453 ft 291 kts 300°
2026-05-06 01:58 35.96190 -86.54223 10328 ft 282 kts 300°
2026-05-06 01:58 35.97355 -86.56183 9970 ft 282 kts 300°
2026-05-06 01:58 35.98583 -86.57996 9976 ft 277 kts 313°
2026-05-06 01:58 36.00290 -86.59094 9959 ft 279 kts 336°
2026-05-06 01:59 36.02183 -86.59380 10052 ft 267 kts 354°
2026-05-06 01:59 36.03951 -86.58967 10119 ft 252 kts
2026-05-06 01:59 36.05570 -86.58307 10002 ft 236 kts 10°
2026-05-06 01:59 36.07080 -86.57668 9745 ft 226 kts
2026-05-06 02:00 36.08567 -86.57055 9325 ft 225 kts
2026-05-06 02:00 36.10060 -86.56449 8891 ft 226 kts
2026-05-06 02:00 36.11543 -86.55845 8542 ft 224 kts
2026-05-06 02:00 36.13021 -86.55248 8204 ft 222 kts
2026-05-06 02:01 36.14473 -86.54664 7847 ft 223 kts
2026-05-06 02:01 36.15944 -86.54072 7515 ft 222 kts
2026-05-06 02:01 36.17414 -86.53480 7159 ft 222 kts
2026-05-06 02:01 36.18879 -86.52890 6853 ft 219 kts
2026-05-06 02:02 36.20329 -86.52306 6529 ft 220 kts
2026-05-06 02:02 36.21778 -86.51724 6188 ft 220 kts 11°
2026-05-06 02:02 36.23228 -86.51138 5940 ft 216 kts 11°
2026-05-06 02:02 36.24650 -86.50698 5618 ft 204 kts 355°
2026-05-06 02:03 36.25980 -86.50866 5360 ft 184 kts 329°
2026-05-06 02:03 36.27119 -86.51511 5161 ft 178 kts 315°
2026-05-06 02:03 36.28050 -86.52448 4929 ft 168 kts 299°
2026-05-06 02:03 36.28629 -86.53622 4647 ft 149 kts 269°
2026-05-06 02:04 36.28493 -86.54805 4165 ft 140 kts 243°
2026-05-06 02:04 36.28184 -86.55955 3749 ft 142 kts 245°
2026-05-06 02:04 36.27720 -86.56990 3344 ft 136 kts 224°
2026-05-06 02:04 36.27083 -86.57869 2986 ft 138 kts 225°
2026-05-06 02:05 36.26456 -86.58824 3002 ft 147 kts 225°
2026-05-06 02:05 36.25822 -86.59812 2974 ft 146 kts 225°
2026-05-06 02:06 36.23952 -86.62821 2704 ft 145 kts 226°
2026-05-06 02:06 36.23290 -86.63776 2525 ft 140 kts 214°
2026-05-06 02:06 36.22405 -86.64295 2369 ft 144 kts 201°
2026-05-06 02:06 36.21491 -86.64780 2203 ft 141 kts 200°
2026-05-06 02:07 36.20588 -86.65178 2009 ft 134 kts 197°
2026-05-06 02:07 36.19720 -86.65527 1835 ft 127 kts 195°
2026-05-06 02:07 36.18862 -86.65864 1683 ft 130 kts 195°
2026-05-06 02:07 36.17964 -86.66184 1492 ft 136 kts 194°
2026-05-06 02:08 36.17043 -86.66607 1327 ft 142 kts 197°
2026-05-06 02:08 36.16086 -86.66926 1082 ft 142 kts 193°
2026-05-06 02:08 36.15138 -86.67328 894 ft 155 kts 203°
2026-05-06 02:08 36.14124 -86.67706 721 ft 148 kts 194°
2026-05-06 02:09 36.13161 -86.68100 585 ft 141 kts 196°
2026-05-06 02:09 36.12380 -86.68406 571 ft 65 kts 198°
2026-05-06 02:09 36.12192 -86.68472 571 ft 21 kts 174°
2026-05-06 02:09 36.12137 -86.68365 574 ft 13 kts 107°
2026-05-06 02:10 36.12131 -86.68343 578 ft 0 kts 107°
2026-05-06 02:11 36.12130 -86.68333 578 ft 3 kts 94°
2026-05-06 02:11 36.12148 -86.68301 581 ft 9 kts 43°
2026-05-06 02:11 36.12208 -86.68271 574 ft 10 kts 18°
2026-05-06 02:11 36.12277 -86.68246 572 ft 11 kts 16°
2026-05-06 02:12 36.12348 -86.68219 574 ft 11 kts 17°
2026-05-06 02:12 36.12420 -86.68194 574 ft 11 kts 16°
2026-05-06 02:12 36.12498 -86.68167 573 ft 15 kts 15°
2026-05-06 02:12 36.12628 -86.68122 573 ft 18 kts 20°
2026-05-06 02:13 36.12736 -86.68077 576 ft 15 kts 11°
2026-05-06 02:13 36.12837 -86.68045 576 ft 15 kts 19°
2026-05-06 02:13 36.12948 -86.67999 573 ft 18 kts 18°
2026-05-06 02:13 36.13065 -86.67954 575 ft 17 kts 17°
2026-05-06 02:14 36.13178 -86.67910 571 ft 18 kts 17°
2026-05-06 02:14 36.13304 -86.67861 573 ft 19 kts 17°
2026-05-06 02:14 36.13429 -86.67812 576 ft 18 kts 17°
2026-05-06 02:14 36.13521 -86.67764 577 ft 12 kts 56°
2026-05-06 02:15 36.13509 -86.67660 573 ft 14 kts 106°
2026-05-06 02:15 36.13473 -86.67524 565 ft 19 kts 109°
2026-05-06 02:15 36.13437 -86.67381 570 ft 14 kts 108°
2026-05-06 02:15 36.13424 -86.67334 569 ft 6 kts 108°
2026-05-06 02:16 36.13423 -86.67328 568 ft 0 kts 108°
2026-05-06 02:16 36.13412 -86.67302 573 ft 5 kts 124°
2026-05-06 02:16 36.13381 -86.67275 568 ft 6 kts 152°
2026-05-06 02:16 36.13352 -86.67261 571 ft 2 kts 160°
2026-05-06 02:17 36.13342 -86.67257 575 ft 1 kts 161°
2026-05-06 02:17 36.13340 -86.67256 574 ft 0 kts 161°
2026-05-06 02:17 36.13339 -86.67255 573 ft 1 kts 161°
2026-05-06 02:17 36.13332 -86.67252 571 ft 1 kts 162°